INTERCOSMOS 25

Last updated on Sat Apr 13 2024 01:02:09 GMT+0100 (British Summer Time)

1 21819U 91086A 24103.25438140 .00001729 00000+0 34096-3 0 9995 2 21819 82.6121 9.9759 1502068 174.4491 187.5590 12.08494487412430
UTC large
Height (km)
Speed (km/s)
/
Latitude / Longitude
Inclination (degrees)
Orbital Period (minutes)
Azimuth
Elevation
Range (km)
Doppler Factor

Next 0 passes for location: London (51.5072 / 0.1276)

Sorry there are no passes over London.